| time (UTC) | temp F | wind direction | speed knots | gust knots | rain 1hr in | rain 24hr in | rain mn in | humidity % | barometer mb |
| 20260901140040 | 84 | 295 | 1.7 | 5.2 | 0.00 | 0.00 | 0.00 | 79 | 1019.9 |
| 20260901134533 | 83 | 229 | 0.9 | 5.2 | 0.00 | 0.00 | 0.00 | 79 | 1019.9 |
| 20260901133029 | 82 | 213 | 0.9 | 3.5 | 0.00 | 0.00 | 0.00 | 78 | 1019.9 |
| 20260901131528 | 80 | 214 | 0.9 | 3.5 | 0.00 | 0.00 | 0.00 | 78 | 1020.0 |
| 20260901130022 | 79 | 178 | 0.0 | 1.7 | 0.00 | 0.00 | 0.00 | 78 | 1020.0 |
| 20260901124535 | 77 | 170 | 0.0 | 1.7 | 0.00 | 0.00 | 0.00 | 78 | 1019.8 |
| 20260901123015 | 75 | 172 | 0.0 | 1.7 | 0.00 | 0.00 | 0.00 | 77 | 1019.6 |
| 20260901121511 | 0 | 0.0 | 0.0 | 0.00 | 0.00 | 0.00 | 1019.2 | ||
| 20260901120005 | 0 | 0.0 | 0.0 | 0.00 | 0.00 | 0.00 | 1019.4 | ||
| 20260901114609 | 0 | 0.0 | 0.0 | 0.00 | 0.00 | 0.00 | 1019.2 | ||
| 20260901113059 | 0 | 0.0 | 0.0 | 0.00 | 0.00 | 0.00 | 1019.0 | ||
| 20260901111557 | 0 | 0.0 | 0.0 | 0.00 | 0.00 | 0.00 | 1019.1 | ||
| 20260901110049 | 0 | 0.0 | 0.0 | 0.00 | 0.00 | 0.00 | 1019.0 | ||
| 20260901104539 | 0 | 0.0 | 0.0 | 0.00 | 0.00 | 0.00 | 1019.0 | ||
| 20260901103038 | 0 | 0.0 | 0.0 | 0.00 | 0.00 | 0.00 | 1018.8 | ||
| 20260901101529 | 0 | 184 | 0.0 | 0.0 | 0.00 | 0.00 | 0.00 | 1018.7 | |
| 20260901100025 | 74 | 185 | 0.0 | 0.0 | 0.00 | 0.00 | 0.00 | 84 | 1018.5 |
| 20260901094523 | 75 | 187 | 0.0 | 0.0 | 0.00 | 0.00 | 0.00 | 82 | 1018.5 |
| 20260901093018 | 75 | 169 | 0.0 | 1.7 | 0.00 | 0.00 | 0.00 | 83 | 1018.5 |
| 20260901091517 | 73 | 153 | 0.0 | 0.0 | 0.00 | 0.00 | 0.00 | 85 | 1018.3 |
| 20260901090012 | 73 | 153 | 0.0 | 0.0 | 0.00 | 0.00 | 0.00 | 87 | 1018.4 |
| 20260901084507 | 74 | 153 | 0.0 | 0.0 | 0.00 | 0.00 | 0.00 | 88 | 1018.1 |
| 20260901083003 | 75 | 153 | 0.0 | 0.0 | 0.00 | 0.00 | 0.00 | 88 | 1017.9 |
| 20260901081600 | 75 | 151 | 0.0 | 0.9 | 0.00 | 0.00 | 0.00 | 88 | 1017.7 |
| 20260901080104 | 75 | 147 | 0.0 | 0.0 | 0.00 | 0.00 | 0.00 | 89 | 1017.8 |
| 20260901074551 | 77 | 147 | 0.0 | 0.0 | 0.00 | 0.00 | 0.00 | 88 | 1017.8 |
| 20260901073046 | 78 | 147 | 0.0 | 0.0 | 0.00 | 0.00 | 0.00 | 87 | 1017.8 |
| 20260901071542 | 79 | 144 | 0.0 | 0.9 | 0.00 | 0.00 | 0.00 | 86 | 1017.6 |
| 20260901070046 | 79 | 180 | 0.9 | 2.6 | 0.00 | 0.00 | 0.00 | 86 | 1017.5 |
| 20260901064538 | 79 | 169 | 0.9 | 2.6 | 0.00 | 0.00 | 0.00 | 86 | 1017.7 |
| 20260901063047 | 80 | 149 | 0.9 | 3.5 | 0.00 | 0.00 | 0.00 | 86 | 1017.7 |
| 20260901061531 | 80 | 154 | 0.9 | 3.5 | 0.00 | 0.00 | 0.00 | 86 | 1017.7 |
| 20260901060027 | 80 | 174 | 1.7 | 3.5 | 0.00 | 0.00 | 0.00 | 85 | 1017.7 |
| 20260901054525 | 81 | 178 | 0.9 | 4.3 | 0.00 | 0.00 | 0.00 | 85 | 1017.7 |
| 20260901053021 | 81 | 192 | 0.9 | 4.3 | 0.00 | 0.00 | 0.00 | 85 | 1017.6 |
| 20260901051520 | 81 | 167 | 2.6 | 5.2 | 0.00 | 0.00 | 0.00 | 85 | 1017.6 |
| 20260901050016 | 82 | 171 | 1.7 | 4.3 | 0.00 | 0.00 | 0.00 | 85 | 1017.6 |
| 20260901044513 | 82 | 187 | 2.6 | 4.3 | 0.00 | 0.00 | 0.00 | 84 | 1017.7 |
| 20260901043012 | 82 | 154 | 0.9 | 3.5 | 0.00 | 0.00 | 0.00 | 84 | 1017.8 |
| 20260901041509 | 83 | 168 | 0.9 | 3.5 | 0.00 | 0.00 | 0.00 | 83 | 1017.8 |
| 20260901040008 | 83 | 150 | 1.7 | 4.3 | 0.00 | 0.00 | 0.00 | 82 | 1017.7 |
| 20260901034511 | 83 | 173 | 2.6 | 5.2 | 0.00 | 0.00 | 0.00 | 82 | 1017.8 |
| 20260901033003 | 84 | 152 | 1.7 | 6.1 | 0.00 | 0.00 | 0.00 | 82 | 1017.8 |
| 20260901031503 | 84 | 165 | 2.6 | 5.2 | 0.00 | 0.00 | 0.00 | 82 | 1017.7 |
| 20260901030058 | 84 | 173 | 1.7 | 5.2 | 0.00 | 0.00 | 0.00 | 82 | 1017.7 |
| 20260901024556 | 84 | 159 | 2.6 | 4.3 | 0.00 | 0.00 | 0.00 | 82 | 1017.7 |
| 20260901023054 | 84 | 149 | 0.9 | 3.5 | 0.00 | 0.00 | 0.00 | 82 | 1017.6 |
| 20260901021552 | 85 | 175 | 0.9 | 3.5 | 0.00 | 0.00 | 0.00 | 81 | 1017.6 |
| 20260901020052 | 85 | 166 | 0.0 | 2.6 | 0.00 | 0.00 | 0.00 | 80 | 1017.3 |
| 20260901014547 | 86 | 222 | 0.9 | 2.6 | 0.00 | 0.00 | 0.00 | 80 | 1017.2 |
| 20260901013045 | 86 | 149 | 0.0 | 1.7 | 0.00 | 0.00 | 0.00 | 80 | 1017.0 |
| 20260901011543 | 87 | 178 | 0.0 | 0.9 | 0.00 | 0.00 | 0.00 | 79 | 1016.9 |
| 20260901010044 | 88 | 171 | 0.0 | 2.6 | 0.00 | 0.00 | 0.00 | 77 | 1016.8 |
| 20260901004537 | 89 | 142 | 0.9 | 4.3 | 0.00 | 0.00 | 0.00 | 76 | 1016.8 |
| 20260901003036 | 90 | 156 | 0.0 | 1.7 | 0.00 | 0.00 | 0.00 | 75 | 1016.7 |
| 20260901001533 | 91 | 166 | 0.0 | 1.7 | 0.00 | 0.00 | 0.00 | 72 | 1016.8 |
| 20260901000036 | 93 | 241 | 0.0 | 2.6 | 0.00 | 0.00 | 0.00 | 71 | 1016.7 |
| 20260831234529 | 94 | 156 | 0.9 | 3.5 | 0.00 | 0.00 | 0.00 | 68 | 1016.7 |
| 20260831233027 | 95 | 171 | 0.9 | 4.3 | 0.00 | 0.00 | 0.00 | 66 | 1016.7 |
| 20260831231523 | 96 | 202 | 0.0 | 3.5 | 0.00 | 0.00 | 0.00 | 64 | 1016.7 |
| 20260831230022 | 96 | 253 | 0.9 | 4.3 | 0.00 | 0.00 | 0.00 | 64 | 1016.7 |
| 20260831224519 | 97 | 163 | 1.7 | 4.3 | 0.00 | 0.00 | 0.00 | 63 | 1016.4 |
| 20260831223023 | 98 | 182 | 1.7 | 5.2 | 0.00 | 0.00 | 0.00 | 61 | 1016.4 |
| 20260831221519 | 99 | 308 | 0.0 | 4.3 | 0.00 | 0.00 | 0.00 | 59 | 1016.5 |
| 20260831220112 | 99 | 251 | 1.7 | 6.1 | 0.00 | 0.00 | 0.00 | 60 | 1016.6 |
| 20260831214508 | 99 | 270 | 0.9 | 4.3 | 0.00 | 0.00 | 0.00 | 60 | 1016.6 |
| 20260831213005 | 99 | 299 | 0.9 | 5.2 | 0.00 | 0.00 | 0.00 | 62 | 1016.6 |
| 20260831211602 | 99 | 171 | 0.9 | 6.1 | 0.00 | 0.00 | 0.00 | 59 | 1016.6 |
| 20260831210055 | 98 | 153 | 0.9 | 8.7 | 0.00 | 0.00 | 0.00 | 63 | 1016.6 |
| 20260831204554 | 98 | 211 | 1.7 | 6.1 | 0.00 | 0.00 | 0.00 | 63 | 1016.7 |
| 20260831203044 | 98 | 258 | 1.7 | 5.2 | 0.00 | 0.00 | 0.00 | 63 | 1016.7 |
| 20260831201539 | 97 | 354 | 0.9 | 7.8 | 0.00 | 0.00 | 0.00 | 63 | 1017.1 |
| 20260831200033 | 97 | 144 | 0.0 | 8.7 | 0.00 | 0.00 | 0.00 | 64 | 1017.3 |
| 20260831194529 | 97 | 240 | 0.9 | 5.2 | 0.00 | 0.00 | 0.00 | 65 | 1017.4 |
| 20260831193030 | 96 | 298 | 0.9 | 7.0 | 0.00 | 0.00 | 0.00 | 65 | 1017.4 |
| 20260831191515 | 96 | 259 | 0.0 | 5.2 | 0.00 | 0.00 | 0.00 | 66 | 1017.5 |
| 20260831190010 | 95 | 268 | 3.5 | 9.6 | 0.00 | 0.00 | 0.00 | 66 | 1017.7 |
| 20260831184503 | 95 | 221 | 1.7 | 5.2 | 0.00 | 0.00 | 0.00 | 68 | 1017.9 |
| 20260831183104 | 95 | 348 | 2.6 | 6.1 | 0.00 | 0.00 | 0.00 | 67 | 1018.0 |
| 20260831181608 | 94 | 246 | 1.7 | 5.2 | 0.00 | 0.00 | 0.00 | 67 | 1018.2 |
| 20260831180045 | 93 | 191 | 0.9 | 5.2 | 0.00 | 0.00 | 0.00 | 69 | 1018.5 |
| 20260831174539 | 94 | 353 | 0.9 | 5.2 | 0.00 | 0.00 | 0.00 | 69 | 1018.7 |
| 20260831173034 | 92 | 332 | 1.7 | 6.1 | 0.00 | 0.00 | 0.00 | 69 | 1018.8 |
| 20260831171528 | 92 | 270 | 1.7 | 6.1 | 0.00 | 0.00 | 0.00 | 70 | 1019.1 |
| 20260831170124 | 91 | 22 | 1.7 | 7.8 | 0.00 | 0.00 | 0.00 | 71 | 1019.3 |
| 20260831164520 | 90 | 2 | 1.7 | 12.2 | 0.00 | 0.00 | 0.00 | 71 | 1019.4 |
| 20260831163016 | 90 | 274 | 1.7 | 8.7 | 0.00 | 0.00 | 0.00 | 70 | 1019.4 |
| 20260831161517 | 90 | 240 | 2.6 | 7.0 | 0.00 | 0.00 | 0.00 | 70 | 1019.3 |
| 20260831160013 | 89 | 336 | 0.9 | 4.3 | 0.00 | 0.00 | 0.00 | 71 | 1019.4 |
| 20260831154613 | 88 | 327 | 0.9 | 5.2 | 0.00 | 0.00 | 0.00 | 73 | 1019.5 |
| 20260831153059 | 87 | 324 | 1.7 | 7.0 | 0.00 | 0.00 | 0.00 | 73 | 1019.4 |
| 20260831151556 | 87 | 256 | 2.6 | 5.2 | 0.00 | 0.00 | 0.00 | 72 | 1019.4 |
| 20260831144553 | 85 | 310 | 2.6 | 7.8 | 0.00 | 0.00 | 0.00 | 74 | 1019.4 |
| 20260831143044 | 84 | 288 | 0.9 | 7.8 | 0.00 | 0.00 | 0.00 | 75 | 1019.1 |
| 20260831141538 | 83 | 238 | 1.7 | 5.2 | 0.00 | 0.00 | 0.00 | 75 | 1019.3 |